Saint Bonnet de Bellac- Haute Vienne - France
Donnes mto: vendredi, 04/05/2012
Date Horaire Temp. E. Hum. E. P.atmo. Pluie Vent Direction Direction Ensoleilleme Solaire P. de rose Temp au vent Rafales
04/05/2012 00:00 12,5 C 84 % 1007,6 hPa 0,0 mm 2,2 km/h (1 Bft) E 90 0 min 0 W/m 9,9 C 12,5 C 4,0 km/h (1 Bft)
04/05/2012 00:10 12,5 C 84 % 1007,4 hPa 0,0 mm 0,0 km/h (0 Bft) E 90 0 min 0 W/m 9,9 C 12,5 C 0,0 km/h (0 Bft)
04/05/2012 00:20 12,4 C 84 % 1007,3 hPa 0,0 mm 2,9 km/h (1 Bft) E 90 0 min 0 W/m 9,8 C 12,4 C 4,0 km/h (1 Bft)
04/05/2012 00:30 12,4 C 84 % 1007,3 hPa 0,0 mm 2,9 km/h (1 Bft) E-SE 112 0 min 0 W/m 9,8 C 12,4 C 3,2 km/h (1 Bft)
04/05/2012 00:40 12,3 C 84 % 1007,3 hPa 0,0 mm 1,8 km/h (1 Bft) E 90 0 min 0 W/m 9,7 C 12,3 C 1,8 km/h (1 Bft)
04/05/2012 00:50 12,3 C 85 % 1007,3 hPa 0,0 mm 0,0 km/h (0 Bft) O-SO 247 0 min 0 W/m 9,9 C 12,3 C 0,0 km/h (0 Bft)
04/05/2012 01:00 12,2 C 84 % 1007,3 hPa 0,0 mm 1,4 km/h (1 Bft) E 90 0 min 0 W/m 9,6 C 12,2 C 3,6 km/h (1 Bft)
04/05/2012 01:10 12,1 C 84 % 1007,0 hPa 0,0 mm 2,2 km/h (1 Bft) E-NE 67 0 min 0 W/m 9,5 C 12,1 C 4,3 km/h (1 Bft)
04/05/2012 01:20 12,1 C 84 % 1006,9 hPa 0,0 mm 1,1 km/h (1 Bft) E-NE 67 0 min 0 W/m 9,5 C 12,1 C 4,3 km/h (1 Bft)
04/05/2012 01:30 12,1 C 84 % 1006,7 hPa 0,0 mm 2,5 km/h (1 Bft) E-SE 112 0 min 0 W/m 9,5 C 12,1 C 3,6 km/h (1 Bft)
04/05/2012 01:40 12,1 C 84 % 1006,6 hPa 0,0 mm 4,0 km/h (1 Bft) E-SE 112 0 min 0 W/m 9,5 C 12,1 C 4,0 km/h (1 Bft)
04/05/2012 01:50 12,2 C 84 % 1006,5 hPa 0,0 mm 1,8 km/h (1 Bft) E-NE 67 0 min 0 W/m 9,6 C 12,2 C 4,3 km/h (1 Bft)
04/05/2012 02:00 12,3 C 84 % 1006,3 hPa 0,0 mm 2,2 km/h (1 Bft) E-SE 112 0 min 0 W/m 9,7 C 12,3 C 7,6 km/h (2 Bft)
04/05/2012 02:10 12,3 C 83 % 1006,3 hPa 0,0 mm 0,4 km/h (0 Bft) E-SE 112 0 min 0 W/m 9,5 C 12,3 C 0,4 km/h (0 Bft)
04/05/2012 02:20 12,3 C 83 % 1006,1 hPa 0,0 mm 3,2 km/h (1 Bft) E 90 0 min 0 W/m 9,5 C 12,3 C 4,0 km/h (1 Bft)
04/05/2012 02:30 12,3 C 83 % 1006,0 hPa 0,0 mm 2,2 km/h (1 Bft) E-SE 112 0 min 0 W/m 9,5 C 12,3 C 4,3 km/h (1 Bft)
04/05/2012 02:40 12,2 C 83 % 1005,9 hPa 0,0 mm 0,0 km/h (0 Bft) E-SE 112 0 min 0 W/m 9,4 C 12,2 C 0,0 km/h (0 Bft)
04/05/2012 02:50 12,1 C 83 % 1005,8 hPa 0,0 mm 0,4 km/h (0 Bft) SE 135 0 min 0 W/m 9,3 C 12,1 C 4,3 km/h (1 Bft)
04/05/2012 03:02 12,1 C 83 % 1005,7 hPa 0,0 mm 0,0 km/h (0 Bft) SE 135 0 min 0 W/m 9,3 C 12,1 C 0,0 km/h (0 Bft)
04/05/2012 03:10 12,1 C 83 % 1005,4 hPa 0,0 mm 2,2 km/h (1 Bft) E-SE 112 0 min 0 W/m 9,3 C 12,1 C 2,2 km/h (1 Bft)
04/05/2012 03:20 11,9 C 83 % 1005,4 hPa 0,0 mm 0,0 km/h (0 Bft) E-SE 112 0 min 0 W/m 9,1 C 11,9 C 0,0 km/h (0 Bft)
04/05/2012 03:30 11,9 C 83 % 1005,4 hPa 0,0 mm 0,0 km/h (0 Bft) E-SE 112 0 min 0 W/m 9,1 C 11,9 C 0,0 km/h (0 Bft)
04/05/2012 03:40 11,8 C 83 % 1005,5 hPa 0,0 mm 1,8 km/h (1 Bft) SE 135 0 min 0 W/m 9,0 C 11,8 C 6,8 km/h (2 Bft)
04/05/2012 03:50 11,7 C 85 % 1006,5 hPa 0,0 mm 7,6 km/h (2 Bft) SO 225 0 min 0 W/m 9,3 C 11,7 C 12,2 km/h (2 Bft)
04/05/2012 04:00 12,1 C 82 % 1006,3 hPa 0,0 mm 9,4 km/h (2 Bft) SO 225 0 min 0 W/m 9,1 C 12,1 C 14,4 km/h (3 Bft)
04/05/2012 04:10 12,7 C 80 % 1006,2 hPa 0,0 mm 11,5 km/h (2 Bft) SO 225 0 min 0 W/m 9,3 C 12,7 C 18,0 km/h (3 Bft)
04/05/2012 04:20 13,1 C 79 % 1006,3 hPa 0,1 mm 10,1 km/h (2 Bft) S-SO 202 0 min 0 W/m 9,5 C 13,1 C 12,2 km/h (2 Bft)
04/05/2012 04:30 13,1 C 79 % 1006,1 hPa 0,0 mm 5,0 km/h (1 Bft) S-SO 202 0 min 0 W/m 9,5 C 13,1 C 5,0 km/h (1 Bft)
04/05/2012 04:40 13,1 C 79 % 1006,1 hPa 0,0 mm 4,7 km/h (1 Bft) O-SO 247 0 min 0 W/m 9,5 C 13,1 C 11,2 km/h (2 Bft)
04/05/2012 04:50 12,9 C 80 % 1005,9 hPa 0,0 mm 1,8 km/h (1 Bft) SO 225 0 min 0 W/m 9,5 C 12,9 C 3,2 km/h (1 Bft)
04/05/2012 05:00 12,8 C 80 % 1005,9 hPa 0,0 mm 1,8 km/h (1 Bft) N 360 0 min 0 W/m 9,4 C 12,8 C 1,8 km/h (1 Bft)
04/05/2012 05:10 12,6 C 81 % 1005,9 hPa 0,0 mm 4,0 km/h (1 Bft) S 180 0 min 0 W/m 9,4 C 12,6 C 4,7 km/h (1 Bft)
04/05/2012 05:20 12,5 C 81 % 1005,8 hPa 0,0 mm 4,3 km/h (1 Bft) SO 225 0 min 0 W/m 9,3 C 12,5 C 7,9 km/h (2 Bft)
04/05/2012 05:30 12,5 C 82 % 1005,6 hPa 0,0 mm 6,8 km/h (2 Bft) S-SO 202 0 min 0 W/m 9,5 C 12,5 C 8,3 km/h (2 Bft)
04/05/2012 05:40 12,5 C 82 % 1005,6 hPa 0,0 mm 1,1 km/h (1 Bft) SO 225 0 min 0 W/m 9,5 C 12,5 C 1,4 km/h (1 Bft)
04/05/2012 05:50 12,5 C 83 % 1005,6 hPa 0,0 mm 1,1 km/h (1 Bft) N 360 0 min 0 W/m 9,7 C 12,5 C 1,1 km/h (1 Bft)
04/05/2012 06:00 12,4 C 83 % 1005,6 hPa 0,0 mm 0,0 km/h (0 Bft) SO 225 0 min 0 W/m 9,6 C 12,4 C 0,0 km/h (0 Bft)
04/05/2012 06:10 12,2 C 83 % 1005,6 hPa 0,0 mm 0,0 km/h (0 Bft) SO 225 0 min 0 W/m 9,4 C 12,2 C 0,0 km/h (0 Bft)
04/05/2012 06:20 12,1 C 84 % 1005,7 hPa 0,0 mm 0,4 km/h (0 Bft) S 180 0 min 0 W/m 9,5 C 12,1 C 3,6 km/h (1 Bft)
04/05/2012 06:30 12,0 C 84 % 1005,9 hPa 0,0 mm 1,1 km/h (1 Bft) S-SO 202 0 min 0 W/m 9,4 C 12,0 C 4,0 km/h (1 Bft)
04/05/2012 06:40 11,9 C 86 % 1005,7 hPa 0,0 mm 1,4 km/h (1 Bft) SO 225 0 min 0 W/m 9,6 C 11,9 C 3,2 km/h (1 Bft)
04/05/2012 06:50 11,8 C 86 % 1005,6 hPa 0,0 mm 0,0 km/h (0 Bft) SO 225 2 min 0 W/m 9,5 C 11,8 C 0,0 km/h (0 Bft)
04/05/2012 07:00 11,8 C 85 % 1005,7 hPa 0,0 mm 1,8 km/h (1 Bft) SE 135 2 min 0 W/m 9,4 C 11,8 C 4,3 km/h (1 Bft)
04/05/2012 07:10 11,8 C 86 % 1005,4 hPa 0,1 mm 0,4 km/h (0 Bft) S-SE 157 2 min 0 W/m 9,5 C 11,8 C 0,4 km/h (0 Bft)
04/05/2012 07:20 11,8 C 86 % 1005,2 hPa 0,0 mm 0,0 km/h (0 Bft) N 360 2 min 0 W/m 9,5 C 11,8 C 0,0 km/h (0 Bft)
04/05/2012 07:30 11,8 C 86 % 1005,2 hPa 0,0 mm 0,0 km/h (0 Bft) E 90 2 min 0 W/m 9,5 C 11,8 C 0,0 km/h (0 Bft)
04/05/2012 07:40 11,7 C 86 % 1004,9 hPa 0,0 mm 0,0 km/h (0 Bft) E 90 2 min 0 W/m 9,4 C 11,7 C 0,0 km/h (0 Bft)
04/05/2012 07:50 11,7 C 86 % 1004,9 hPa 0,0 mm 0,0 km/h (0 Bft) E 90 2 min 0 W/m 9,4 C 11,7 C 0,0 km/h (0 Bft)
04/05/2012 08:00 11,7 C 87 % 1005,1 hPa 0,0 mm 3,2 km/h (1 Bft) S 180 2 min 0 W/m 9,6 C 11,7 C 4,3 km/h (1 Bft)
04/05/2012 08:10 11,8 C 87 % 1005,3 hPa 0,0 mm 3,6 km/h (1 Bft) SE 135 2 min 0 W/m 9,7 C 11,8 C 3,6 km/h (1 Bft)
04/05/2012 08:20 11,8 C 87 % 1005,2 hPa 0,0 mm 0,7 km/h (0 Bft) SE 135 2 min 0 W/m 9,7 C 11,8 C 4,3 km/h (1 Bft)
04/05/2012 08:30 12,0 C 87 % 1005,3 hPa 0,0 mm 0,0 km/h (0 Bft) SE 135 2 min 0 W/m 9,9 C 12,0 C 0,0 km/h (0 Bft)
04/05/2012 08:40 12,2 C 87 % 1005,4 hPa 0,0 mm 0,0 km/h (0 Bft) S-SE 157 2 min 0 W/m 10,1 C 12,2 C 2,9 km/h (1 Bft)
04/05/2012 08:50 12,4 C 87 % 1005,4 hPa 0,0 mm 2,5 km/h (1 Bft) S-SE 157 2 min 0 W/m 10,3 C 12,4 C 3,6 km/h (1 Bft)
04/05/2012 09:00 12,7 C 87 % 1005,3 hPa 0,0 mm 1,8 km/h (1 Bft) S 180 2 min 0 W/m 10,6 C 12,7 C 3,2 km/h (1 Bft)
04/05/2012 09:10 13,1 C 86 % 1005,4 hPa 0,0 mm 0,0 km/h (0 Bft) S-SE 157 2 min 0 W/m 10,8 C 13,1 C 0,0 km/h (0 Bft)
04/05/2012 09:20 13,6 C 85 % 1005,1 hPa 0,0 mm 0,0 km/h (0 Bft) S-SE 157 2 min 0 W/m 11,1 C 13,6 C 0,0 km/h (0 Bft)
04/05/2012 09:30 14,1 C 85 % 1005,1 hPa 0,0 mm 2,2 km/h (1 Bft) S 180 2 min 0 W/m 11,6 C 14,1 C 3,6 km/h (1 Bft)
04/05/2012 09:40 14,6 C 80 % 1005,2 hPa 0,0 mm 6,5 km/h (2 Bft) SO 225 2 min 0 W/m 11,2 C 14,6 C 11,5 km/h (2 Bft)
04/05/2012 09:50 15,3 C 76 % 1005,2 hPa 0,0 mm 5,8 km/h (2 Bft) SO 225 2 min 0 W/m 11,1 C 15,3 C 8,6 km/h (2 Bft)
04/05/2012 10:00 15,6 C 77 % 1005,1 hPa 0,0 mm 2,2 km/h (1 Bft) SO 225 2 min 0 W/m 11,6 C 15,6 C 3,6 km/h (1 Bft)
04/05/2012 10:10 15,8 C 76 % 1005,0 hPa 0,0 mm 2,2 km/h (1 Bft) SO 225 2 min 0 W/m 11,6 C 15,8 C 2,9 km/h (1 Bft)
04/05/2012 10:20 16,3 C 73 % 1005,1 hPa 0,0 mm 9,0 km/h (2 Bft) SO 225 2 min 0 W/m 11,4 C 16,3 C 10,8 km/h (2 Bft)
04/05/2012 10:30 16,6 C 74 % 1005,1 hPa 0,0 mm 1,8 km/h (1 Bft) S-SO 202 2 min 0 W/m 11,9 C 16,6 C 4,0 km/h (1 Bft)
04/05/2012 10:40 16,6 C 73 % 1005,0 hPa 0,0 mm 8,3 km/h (2 Bft) SO 225 2 min 0 W/m 11,7 C 16,6 C 8,3 km/h (2 Bft)
04/05/2012 10:50 16,4 C 72 % 1004,9 hPa 0,0 mm 8,3 km/h (2 Bft) N 360 2 min 0 W/m 11,3 C 16,4 C 8,3 km/h (2 Bft)
04/05/2012 11:00 16,2 C 72 % 1005,0 hPa 0,0 mm 7,6 km/h (2 Bft) S-SO 202 2 min 0 W/m 11,1 C 16,2 C 13,7 km/h (3 Bft)
04/05/2012 11:10 16,2 C 73 % 1005,1 hPa 0,0 mm 8,3 km/h (2 Bft) S 180 2 min 0 W/m 11,4 C 16,2 C 9,4 km/h (2 Bft)
04/05/2012 11:20 16,3 C 74 % 1005,2 hPa 0,0 mm 6,5 km/h (2 Bft) S 180 2 min 0 W/m 11,7 C 16,3 C 10,1 km/h (2 Bft)
04/05/2012 11:30 16,3 C 72 % 1005,2 hPa 0,0 mm 8,3 km/h (2 Bft) SO 225 2 min 0 W/m 11,2 C 16,3 C 10,4 km/h (2 Bft)
04/05/2012 11:40 16,3 C 73 % 1005,2 hPa 0,0 mm 6,8 km/h (2 Bft) S 180 2 min 0 W/m 11,4 C 16,3 C 8,6 km/h (2 Bft)
04/05/2012 11:50 16,4 C 71 % 1005,2 hPa 0,0 mm 5,4 km/h (2 Bft) SO 225 2 min 0 W/m 11,1 C 16,4 C 7,2 km/h (2 Bft)
04/05/2012 12:00 16,7 C 72 % 1005,2 hPa 0,0 mm 3,6 km/h (1 Bft) S 180 2 min 0 W/m 11,6 C 16,7 C 6,5 km/h (2 Bft)
04/05/2012 12:10 16,9 C 71 % 1005,1 hPa 0,0 mm 5,0 km/h (1 Bft) S 180 2 min 0 W/m 11,6 C 16,9 C 5,0 km/h (1 Bft)
04/05/2012 12:20 17,2 C 71 % 1005,2 hPa 0,0 mm 9,7 km/h (2 Bft) S-SE 157 2 min 0 W/m 11,9 C 17,2 C 13,7 km/h (3 Bft)
04/05/2012 12:30 17,3 C 70 % 1005,0 hPa 0,0 mm 5,0 km/h (1 Bft) S-SO 202 2 min 0 W/m 11,8 C 17,3 C 10,1 km/h (2 Bft)
04/05/2012 12:40 17,2 C 68 % 1005,1 hPa 0,0 mm 4,0 km/h (1 Bft) S-SE 157 2 min 0 W/m 11,2 C 17,2 C 6,5 km/h (2 Bft)
04/05/2012 12:50 17,2 C 69 % 1005,1 hPa 0,0 mm 9,4 km/h (2 Bft) S-SE 157 2 min 0 W/m 11,5 C 17,2 C 16,2 km/h (3 Bft)
04/05/2012 13:00 17,2 C 69 % 1004,9 hPa 0,0 mm 7,6 km/h (2 Bft) S 180 2 min 0 W/m 11,5 C 17,2 C 11,9 km/h (2 Bft)
04/05/2012 13:10 17,4 C 70 % 1004,8 hPa 0,0 mm 7,2 km/h (2 Bft) SE 135 2 min 0 W/m 11,9 C 17,4 C 9,7 km/h (2 Bft)
04/05/2012 13:20 17,9 C 68 % 1004,7 hPa 0,0 mm 5,8 km/h (2 Bft) S-SE 157 2 min 0 W/m 11,9 C 17,9 C 6,1 km/h (2 Bft)
04/05/2012 13:30 17,9 C 67 % 1004,6 hPa 0,0 mm 6,5 km/h (2 Bft) S-SE 157 2 min 0 W/m 11,7 C 17,9 C 6,8 km/h (2 Bft)
04/05/2012 13:40 17,9 C 68 % 1004,5 hPa 0,0 mm 7,6 km/h (2 Bft) SO 225 2 min 0 W/m 11,9 C 17,9 C 12,6 km/h (3 Bft)
04/05/2012 13:50 18,5 C 65 % 1004,5 hPa 0,0 mm 13,0 km/h (3 Bft) S-SO 202 2 min 0 W/m 11,8 C 18,5 C 14,8 km/h (3 Bft)
04/05/2012 14:00 18,6 C 65 % 1004,6 hPa 0,0 mm 5,4 km/h (2 Bft) S-SO 202 2 min 0 W/m 11,9 C 18,6 C 8,3 km/h (2 Bft)
04/05/2012 14:10 18,6 C 62 % 1004,5 hPa 0,0 mm 11,2 km/h (2 Bft) S 180 2 min 0 W/m 11,2 C 18,6 C 15,5 km/h (3 Bft)
04/05/2012 14:20 18,3 C 60 % 1004,5 hPa 0,0 mm 7,6 km/h (2 Bft) S-SO 202 2 min 0 W/m 10,4 C 18,3 C 10,4 km/h (2 Bft)
04/05/2012 14:30 17,8 C 65 % 1004,5 hPa 0,0 mm 6,5 km/h (2 Bft) S 180 2 min 0 W/m 11,1 C 17,8 C 11,2 km/h (2 Bft)
04/05/2012 14:40 17,6 C 65 % 1004,2 hPa 0,0 mm 9,0 km/h (2 Bft) S-SO 202 2 min 0 W/m 10,9 C 17,6 C 11,5 km/h (2 Bft)
04/05/2012 14:50 17,4 C 65 % 1004,3 hPa 0,0 mm 8,6 km/h (2 Bft) SO 225 2 min 0 W/m 10,8 C 17,4 C 13,0 km/h (3 Bft)
04/05/2012 15:00 17,2 C 65 % 1004,4 hPa 0,0 mm 7,9 km/h (2 Bft) SO 225 2 min 0 W/m 10,6 C 17,2 C 7,9 km/h (2 Bft)
04/05/2012 15:10 17,5 C 65 % 1004,3 hPa 0,0 mm 11,5 km/h (2 Bft) S-SE 157 2 min 0 W/m 10,8 C 17,5 C 12,6 km/h (3 Bft)
04/05/2012 15:20 17,6 C 65 % 1004,2 hPa 0,0 mm 11,2 km/h (2 Bft) S-SE 157 2 min 0 W/m 10,9 C 17,6 C 11,2 km/h (2 Bft)
04/05/2012 15:30 17,8 C 67 % 1004,4 hPa 0,0 mm 11,2 km/h (2 Bft) N 360 2 min 0 W/m 11,6 C 17,8 C 11,2 km/h (2 Bft)
04/05/2012 15:40 17,5 C 69 % 1004,3 hPa 0,0 mm 4,3 km/h (1 Bft) S-SE 157 2 min 0 W/m 11,7 C 17,5 C 7,2 km/h (2 Bft)
04/05/2012 15:50 17,3 C 70 % 1004,2 hPa 0,0 mm 3,6 km/h (1 Bft) E-SE 112 2 min 0 W/m 11,8 C 17,3 C 6,8 km/h (2 Bft)
04/05/2012 16:00 17,1 C 72 % 1004,1 hPa 0,0 mm 4,0 km/h (1 Bft) S-SE 157 2 min 0 W/m 12,0 C 17,1 C 7,2 km/h (2 Bft)
04/05/2012 16:10 16,9 C 70 % 1003,9 hPa 0,0 mm 6,1 km/h (2 Bft) S 180 2 min 0 W/m 11,4 C 16,9 C 9,7 km/h (2 Bft)
04/05/2012 16:20 16,8 C 71 % 1003,8 hPa 0,0 mm 6,1 km/h (2 Bft) S 180 2 min 0 W/m 11,5 C 16,8 C 10,8 km/h (2 Bft)
04/05/2012 16:30 16,3 C 74 % 1003,7 hPa 0,0 mm 5,8 km/h (2 Bft) S 180 2 min 0 W/m 11,7 C 16,3 C 10,4 km/h (2 Bft)
04/05/2012 16:40 16,1 C 75 % 1003,8 hPa 0,0 mm 4,7 km/h (1 Bft) O-SO 247 2 min 0 W/m 11,7 C 16,1 C 9,7 km/h (2 Bft)
04/05/2012 16:50 16,0 C 76 % 1003,8 hPa 0,0 mm 3,6 km/h (1 Bft) S-SO 202 2 min 0 W/m 11,8 C 16,0 C 7,6 km/h (2 Bft)
04/05/2012 17:00 16,0 C 75 % 1003,8 hPa 0,0 mm 7,9 km/h (2 Bft) SE 135 2 min 0 W/m 11,6 C 16,0 C 8,6 km/h (2 Bft)
04/05/2012 17:10 16,1 C 74 % 1003,7 hPa 0,0 mm 9,0 km/h (2 Bft) S-SO 202 2 min 0 W/m 11,5 C 16,1 C 16,9 km/h (3 Bft)
04/05/2012 17:20 16,0 C 73 % 1003,7 hPa 0,0 mm 13,0 km/h (3 Bft) S-SE 157 2 min 0 W/m 11,2 C 16,0 C 16,9 km/h (3 Bft)
04/05/2012 17:30 15,8 C 73 % 1003,8 hPa 0,0 mm 10,1 km/h (2 Bft) S-SO 202 2 min 0 W/m 11,0 C 15,8 C 10,1 km/h (2 Bft)
04/05/2012 17:40 15,8 C 74 % 1003,7 hPa 0,0 mm 6,5 km/h (2 Bft) SO 225 2 min 0 W/m 11,2 C 15,8 C 10,1 km/h (2 Bft)
04/05/2012 17:50 15,8 C 74 % 1003,7 hPa 0,0 mm 3,2 km/h (1 Bft) S 180 2 min 0 W/m 11,2 C 15,8 C 5,4 km/h (2 Bft)
04/05/2012 18:00 15,8 C 73 % 1003,8 hPa 0,0 mm 6,5 km/h (2 Bft) S 180 2 min 0 W/m 11,0 C 15,8 C 9,4 km/h (2 Bft)
04/05/2012 18:10 16,0 C 73 % 1003,6 hPa 0,0 mm 4,7 km/h (1 Bft) S-SE 157 2 min 0 W/m 11,2 C 16,0 C 4,7 km/h (1 Bft)
04/05/2012 18:20 16,2 C 71 % 1003,5 hPa 0,0 mm 6,5 km/h (2 Bft) S-SE 157 2 min 0 W/m 10,9 C 16,2 C 9,7 km/h (2 Bft)
04/05/2012 18:30 16,2 C 71 % 1003,6 hPa 0,0 mm 3,2 km/h (1 Bft) SO 225 2 min 0 W/m 10,9 C 16,2 C 3,6 km/h (1 Bft)
04/05/2012 18:40 16,2 C 71 % 1003,5 hPa 0,0 mm 5,0 km/h (1 Bft) S-SO 202 2 min 0 W/m 10,9 C 16,2 C 7,2 km/h (2 Bft)
04/05/2012 18:50 16,1 C 71 % 1003,4 hPa 0,0 mm 1,8 km/h (1 Bft) S-SO 202 2 min 0 W/m 10,8 C 16,1 C 6,5 km/h (2 Bft)
04/05/2012 19:00 16,0 C 72 % 1003,3 hPa 0,0 mm 5,8 km/h (2 Bft) S-SE 157 2 min 0 W/m 11,0 C 16,0 C 7,6 km/h (2 Bft)
04/05/2012 19:10 15,9 C 72 % 1003,2 hPa 0,0 mm 2,9 km/h (1 Bft) S-SO 202 2 min 0 W/m 10,9 C 15,9 C 6,5 km/h (2 Bft)
04/05/2012 19:20 15,7 C 73 % 1003,2 hPa 0,0 mm 4,3 km/h (1 Bft) S-SE 157 2 min 0 W/m 10,9 C 15,7 C 4,3 km/h (1 Bft)
04/05/2012 19:30 15,6 C 74 % 1003,2 hPa 0,0 mm 4,3 km/h (1 Bft) S-SE 157 2 min 0 W/m 11,0 C 15,6 C 6,1 km/h (2 Bft)
04/05/2012 19:40 15,4 C 75 % 1003,3 hPa 0,0 mm 2,5 km/h (1 Bft) SE 135 2 min 0 W/m 11,0 C 15,4 C 4,3 km/h (1 Bft)
04/05/2012 19:50 15,3 C 76 % 1003,3 hPa 0,0 mm 0,4 km/h (0 Bft) S 180 2 min 0 W/m 11,1 C 15,3 C 3,6 km/h (1 Bft)
04/05/2012 20:00 15,2 C 75 % 1003,4 hPa 0,0 mm 1,4 km/h (1 Bft) S 180 2 min 0 W/m 10,8 C 15,2 C 4,3 km/h (1 Bft)
04/05/2012 20:10 15,0 C 75 % 1003,4 hPa 0,0 mm 0,7 km/h (0 Bft) S-SE 157 2 min 0 W/m 10,6 C 15,0 C 4,0 km/h (1 Bft)
04/05/2012 20:20 14,9 C 76 % 1003,4 hPa 0,0 mm 2,9 km/h (1 Bft) S-SO 202 2 min 0 W/m 10,7 C 14,9 C 2,9 km/h (1 Bft)
04/05/2012 20:30 14,8 C 76 % 1003,4 hPa 0,0 mm 0,4 km/h (0 Bft) S 180 2 min 0 W/m 10,6 C 14,8 C 0,4 km/h (0 Bft)
04/05/2012 20:40 14,6 C 77 % 1003,5 hPa 0,0 mm 0,4 km/h (0 Bft) N 360 2 min 0 W/m 10,6 C 14,6 C 0,4 km/h (0 Bft)
04/05/2012 20:50 14,5 C 77 % 1003,5 hPa 0,0 mm 3,2 km/h (1 Bft) S-SO 202 2 min 0 W/m 10,5 C 14,5 C 6,1 km/h (2 Bft)
04/05/2012 21:00 14,3 C 78 % 1003,5 hPa 0,0 mm 4,0 km/h (1 Bft) S 180 0 min 0 W/m 10,5 C 14,3 C 7,2 km/h (2 Bft)
04/05/2012 21:10 14,0 C 78 % 1003,3 hPa 0,0 mm 2,2 km/h (1 Bft) S 180 0 min 0 W/m 10,2 C 14,0 C 4,0 km/h (1 Bft)
04/05/2012 21:20 13,7 C 79 % 1003,5 hPa 0,0 mm 5,8 km/h (2 Bft) S-SE 157 0 min 0 W/m 10,1 C 13,7 C 10,1 km/h (2 Bft)
04/05/2012 21:30 13,4 C 80 % 1003,4 hPa 0,0 mm 4,0 km/h (1 Bft) S-SO 202 0 min 0 W/m 10,0 C 13,4 C 4,3 km/h (1 Bft)
04/05/2012 21:40 13,1 C 81 % 1003,6 hPa 0,0 mm 3,6 km/h (1 Bft) S-SO 202 0 min 0 W/m 9,9 C 13,1 C 9,4 km/h (2 Bft)
04/05/2012 21:50 13,0 C 81 % 1003,7 hPa 0,0 mm 2,9 km/h (1 Bft) S-SE 157 0 min 0 W/m 9,8 C 13,0 C 6,8 km/h (2 Bft)
04/05/2012 22:00 12,9 C 82 % 1003,8 hPa 0,0 mm 3,2 km/h (1 Bft) S-SE 157 0 min 0 W/m 9,9 C 12,9 C 7,9 km/h (2 Bft)
04/05/2012 22:10 12,8 C 83 % 1003,9 hPa 0,0 mm 3,6 km/h (1 Bft) S 180 0 min 0 W/m 10,0 C 12,8 C 4,3 km/h (1 Bft)
04/05/2012 22:20 12,6 C 84 % 1004,1 hPa 0,0 mm 3,2 km/h (1 Bft) S-SO 202 0 min 0 W/m 10,0 C 12,6 C 4,0 km/h (1 Bft)
04/05/2012 22:30 12,6 C 84 % 1004,2 hPa 0,0 mm 1,1 km/h (1 Bft) S-SO 202 0 min 0 W/m 10,0 C 12,6 C 4,0 km/h (1 Bft)
04/05/2012 22:40 12,6 C 85 % 1004,2 hPa 0,0 mm 12,2 km/h (2 Bft) S-SO 202 0 min 0 W/m 10,1 C 12,6 C 12,2 km/h (2 Bft)
04/05/2012 22:50 12,4 C 83 % 1004,2 hPa 0,0 mm 7,2 km/h (2 Bft) S 180 0 min 0 W/m 9,6 C 12,4 C 9,7 km/h (2 Bft)
04/05/2012 23:00 12,2 C 84 % 1004,2 hPa 0,0 mm 5,0 km/h (1 Bft) S-SO 202 0 min 0 W/m 9,6 C 12,2 C 7,9 km/h (2 Bft)
04/05/2012 23:10 11,8 C 84 % 1004,1 hPa 0,0 mm 1,1 km/h (1 Bft) S-SO 202 0 min 0 W/m 9,2 C 11,8 C 3,6 km/h (1 Bft)
04/05/2012 23:20 11,6 C 84 % 1004,3 hPa 0,0 mm 3,2 km/h (1 Bft) SO 225 0 min 0 W/m 9,0 C 11,6 C 6,1 km/h (2 Bft)
04/05/2012 23:30 11,4 C 85 % 1004,3 hPa 0,0 mm 0,7 km/h (0 Bft) SO 225 0 min 0 W/m 9,0 C 11,4 C 4,0 km/h (1 Bft)
04/05/2012 23:40 11,3 C 85 % 1004,4 hPa 0,0 mm 1,4 km/h (1 Bft) S-SO 202 0 min 0 W/m 8,9 C 11,3 C 4,0 km/h (1 Bft)
04/05/2012 23:50 11,1 C 85 % 1004,3 hPa 0,0 mm 1,4 km/h (1 Bft) S 180 0 min 0 W/m 8,7 C 11,1 C 3,2 km/h (1 Bft)
_ Min-Heure 23:50 14:20 19:30 - 09:20 - - - - 23:50 23:50 09:20
Minimum _ 11,1 C 60 % 1003,2 hPa - 0,0 km/h (0 Bft) - - - - 8,7 C 11,1 C 0,0 km/h (0 Bft)
_ Max-Heure 14:10 09:00 00:00 07:10 17:20 - - 20:50 23:50 16:00 14:10 04:10
Maximum _ 18,6 C 87 % 1007,6 hPa 0,1 mm 13,0 km/h
S-SE (3 Bft)
- - 2 min 0 W/m 12,0 C 18,6 C 18,0 km/h
SO (3 Bft)
Moyenne _ 14,3 C 78 % 1004,9 hPa #0,2 mm 4,1 km/h (1 Bft) S-SO - #2:50 h 0 W/m 10,4 C 14,3 C 6,3 km/h (2 Bft)
Saint Bonnet de Bellac- Haute Vienne - France